User: anonymous   Login
Location: *
(51.1248°S, 108.4023°W)
Time: 07:19:11
(UTC+00:00)
Language:

Cosmos 1937 Rocket - Orbit

View from above orbital plane
View from above orbital plane
View from above satellite
View from above satellite

Ground track
Ground track

The orbit data is extracted from the following two-line orbital elements,

1 19039U 88029B   21267.52528447  .00000098  00000-0  40347-4 0  9993
2 19039  74.0470 305.7261 0022411  91.6265 268.7457 14.38527946755206
Epoch (UTC): 24 September 2021 12:36:24
Eccentricity: 0.0022411
inclination: 74.0470°
perigee height: 747 km
apogee height: 779 km
right ascension of ascending node: 305.7261°
argument of perigee: 91.6265°
revolutions per day: 14.38527946
mean anomaly at epoch: 268.7457°
orbit number at epoch: 75520

The dashed part of the orbit path shows where the satellite is in the earth's shadow,  

DLR